Rugby, ND

3:46 PM CST on December 07, 2019 (GMT -0600)
Rugby Municipal

Weather History for KRUG - October, 2019

Change the Weather History Date:

Sunday, October 13, 2019

  Actual Average Record
Temperature  
Mean Temperature 32 °F -  
Max Temperature 35 °F 56 °F 85 °F (1958)
Min Temperature 28 °F 33 °F 15 °F (1979)
Degree Days  
Heating Degree Days 34    
Moisture  
Dew Point 30 °F    
Average Humidity 93    
Maximum Humidity 100    
Minimum Humidity 81    
Precipitation  
Precipitation 0.00 in - - ()
Sea Level Pressure  
Sea Level Pressure 29.82 in    
Wind  
Wind Speed 15 mph (WNW)    
Max Wind Speed 22 mph    
Max Gust Speed 26 mph    
Visibility 10 miles    
Events Snow    
Averages and records for this station are not official NWS values.
T = Trace of Precipitation, MM = Missing Value Source: NWS Daily Summary

Daily Weather History Graph

Daily Weather History Graph

Search for Another Location

Airport or City:

Astronomy

Oct. 13, 2019 Rise Set
Actual Time 7:56 AM CDT 6:55 PM CDT
Civil Twilight 7:25 AM CDT 7:26 PM CDT
Nautical Twilight 6:48 AM CDT 8:02 PM CDT
Astronomical Twilight 6:12 AM CDT 8:38 PM CDT
Moon 7:22 PM CDT (10/13) 7:25 AM CDT (10/13)
Length of Visible Light 12h 01m
Length of Day
10h 58m
Full, 100% of the Moon is Illuminated
Oct 13
Full
Oct 13
Full
Oct 21
Last Quarter
Oct 27
New
Nov 4
First Quarter

Hourly Weather History & Observations

Time (CDT) Temp. Windchill Dew Point Humidity Pressure Visibility Wind Dir Wind Speed Gust Speed Precip Events Conditions
12:55 AM 30.2 °F 17.4 °F 28.4 °F 93% 29.71 in 10.0 mi NW 20.7 mph - N/A   Overcast
1:15 AM 28.4 °F 15.1 °F 28.4 °F 100% 29.72 in 10.0 mi NW 20.7 mph - N/A   Overcast
1:35 AM 28.4 °F 15.1 °F 28.4 °F 100% 29.71 in 10.0 mi NW 20.7 mph - N/A   Overcast
1:55 AM 28.4 °F 15.4 °F 28.4 °F 100% 29.72 in 10.0 mi NW 19.6 mph 26.5 mph N/A   Overcast
2:15 AM 28.4 °F 15.4 °F 28.4 °F 100% 29.72 in 10.0 mi NW 19.6 mph - N/A   Overcast
2:35 AM 30.2 °F 17.1 °F 28.4 °F 93% 29.73 in 10.0 mi NW 21.9 mph - N/A   Overcast
2:55 AM 30.2 °F 17.1 °F 28.4 °F 93% 29.73 in 10.0 mi NW 21.9 mph - N/A   Overcast
3:15 AM 30.2 °F 17.1 °F 28.4 °F 93% 29.73 in 10.0 mi NW 21.9 mph - N/A   Overcast
3:35 AM 30.2 °F 18.1 °F 28.4 °F 93% 29.74 in 10.0 mi NW 18.4 mph 24.2 mph N/A   Overcast
3:55 AM 30.2 °F 18.1 °F 28.4 °F 93% 29.74 in 10.0 mi NW 18.4 mph - N/A   Overcast
4:15 AM 30.2 °F 18.5 °F 28.4 °F 93% 29.74 in 10.0 mi NW 17.3 mph - N/A   Overcast
4:35 AM 30.2 °F 18.1 °F 28.4 °F 93% 29.74 in 10.0 mi NW 18.4 mph - N/A   Overcast
4:55 AM 30.2 °F 18.5 °F 28.4 °F 93% 29.74 in 9.0 mi NW 17.3 mph - N/A   Overcast
5:15 AM 30.2 °F 18.1 °F 30.2 °F 100% 29.75 in 7.0 mi NW 18.4 mph - N/A Snow Light Snow
5:35 AM 30.2 °F 18.5 °F 30.2 °F 100% 29.75 in 6.0 mi NW 17.3 mph - N/A Snow Light Snow
5:55 AM 30.2 °F 18.9 °F 30.2 °F 100% 29.75 in 9.0 mi NW 16.1 mph - N/A Snow Light Snow
6:15 AM 30.2 °F 18.1 °F 30.2 °F 100% 29.75 in 6.0 mi NW 18.4 mph - N/A Snow Light Snow
6:35 AM 30.2 °F 18.5 °F 30.2 °F 100% 29.76 in 6.0 mi NW 17.3 mph - N/A Snow Light Snow
6:55 AM 30.2 °F 18.5 °F 30.2 °F 100% 29.77 in 10.0 mi NW 17.3 mph - N/A Snow Light Snow
7:15 AM 30.2 °F 18.5 °F 30.2 °F 100% 29.77 in 10.0 mi NW 17.3 mph - N/A Snow Light Snow
7:35 AM 30.2 °F 19.3 °F 30.2 °F 100% 29.77 in 10.0 mi NW 15.0 mph - N/A   Overcast
7:55 AM 30.2 °F 19.3 °F 30.2 °F 100% 29.78 in 9.0 mi NW 15.0 mph - N/A   Overcast
8:15 AM 30.2 °F 18.9 °F 30.2 °F 100% 29.79 in 10.0 mi NW 16.1 mph - N/A   Overcast
8:35 AM 30.2 °F 19.3 °F 30.2 °F 100% 29.79 in 10.0 mi NW 15.0 mph - N/A   Overcast
8:55 AM 30.2 °F 18.9 °F 30.2 °F 100% 29.80 in 10.0 mi NW 16.1 mph - N/A   Overcast
9:15 AM 30.2 °F 18.9 °F 30.2 °F 100% 29.80 in 10.0 mi NW 16.1 mph - N/A   Mostly Cloudy
9:35 AM 30.2 °F 19.3 °F 30.2 °F 100% 29.81 in 10.0 mi NW 15.0 mph - N/A   Mostly Cloudy
9:55 AM 30.2 °F 19.3 °F 30.2 °F 100% 29.82 in 10.0 mi NW 15.0 mph - N/A   Mostly Cloudy
10:15 AM 32.0 °F 22.1 °F 30.2 °F 93% 29.82 in 10.0 mi NW 13.8 mph - N/A   Overcast
10:35 AM 32.0 °F 21.6 °F 30.2 °F 93% 29.83 in 10.0 mi NW 15.0 mph - N/A   Mostly Cloudy
10:55 AM 32.0 °F 22.1 °F 30.2 °F 93% 29.83 in 10.0 mi NW 13.8 mph - N/A   Overcast
11:15 AM 32.0 °F 23.0 °F 30.2 °F 93% 29.83 in 10.0 mi NW 11.5 mph 18.4 mph N/A   Overcast
11:35 AM 32.0 °F 22.5 °F 30.2 °F 93% 29.84 in 10.0 mi NW 12.7 mph - N/A   Overcast
11:55 AM 33.8 °F 24.8 °F 30.2 °F 87% 29.85 in 10.0 mi NW 12.7 mph - N/A   Overcast
12:15 PM 33.8 °F 24.8 °F 30.2 °F 87% 29.85 in 10.0 mi NW 12.7 mph - N/A   Mostly Cloudy
12:35 PM 33.8 °F 23.9 °F 30.2 °F 87% 29.86 in 10.0 mi NW 15.0 mph - N/A   Overcast
12:55 PM 33.8 °F 24.3 °F 30.2 °F 87% 29.86 in 10.0 mi NW 13.8 mph - N/A   Overcast
1:15 PM 33.8 °F 25.3 °F 30.2 °F 87% 29.86 in 10.0 mi NW 11.5 mph - N/A   Overcast
1:35 PM 33.8 °F 25.8 °F 30.2 °F 87% 29.86 in 10.0 mi NW 10.4 mph - N/A   Mostly Cloudy
1:55 PM 33.8 °F 25.8 °F 30.2 °F 87% 29.85 in 10.0 mi NW 10.4 mph - N/A   Partly Cloudy
2:15 PM 35.6 °F 28.0 °F 30.2 °F 81% 29.86 in 10.0 mi NW 10.4 mph - N/A   Partly Cloudy
2:35 PM 35.6 °F 27.5 °F 30.2 °F 81% 29.86 in 10.0 mi NW 11.5 mph - N/A   Mostly Cloudy
2:55 PM 35.6 °F 27.1 °F 30.2 °F 81% 29.86 in 10.0 mi WNW 12.7 mph - N/A   Overcast
3:15 PM 33.8 °F 25.3 °F 30.2 °F 87% 29.86 in 10.0 mi WNW 11.5 mph - N/A   Overcast
3:35 PM 33.8 °F 24.8 °F 30.2 °F 87% 29.86 in 10.0 mi WNW 12.7 mph - N/A   Scattered Clouds
3:55 PM 33.8 °F 25.3 °F 30.2 °F 87% 29.86 in 10.0 mi NW 11.5 mph - N/A   Clear
4:15 PM 33.8 °F 24.8 °F 30.2 °F 87% 29.87 in 10.0 mi WNW 12.7 mph - N/A   Clear
4:35 PM 33.8 °F 25.3 °F 30.2 °F 87% 29.87 in 10.0 mi WNW 11.5 mph - N/A   Clear
4:55 PM 33.8 °F 25.8 °F 30.2 °F 87% 29.88 in 10.0 mi WNW 10.4 mph - N/A   Clear
5:15 PM 33.8 °F 25.8 °F 30.2 °F 87% 29.87 in 10.0 mi WNW 10.4 mph - N/A   Clear
5:35 PM 33.8 °F 27.0 °F 30.2 °F 87% 29.88 in 10.0 mi WNW 8.1 mph - N/A   Scattered Clouds
5:55 PM 33.8 °F 28.6 °F 30.2 °F 87% 29.88 in 10.0 mi WNW 5.8 mph - N/A   Scattered Clouds
6:15 PM 33.8 °F 27.7 °F 30.2 °F 87% 29.88 in 10.0 mi WNW 6.9 mph - N/A   Overcast
6:35 PM 33.8 °F 29.6 °F 30.2 °F 87% 29.88 in 10.0 mi WNW 4.6 mph - N/A   Mostly Cloudy
6:55 PM 33.8 °F - 30.2 °F 87% 29.88 in 10.0 mi Calm Calm - N/A   Scattered Clouds
7:15 PM 32.0 °F 27.5 °F 30.2 °F 93% 29.89 in 10.0 mi WNW 4.6 mph - N/A   Mostly Cloudy
7:35 PM 32.0 °F 28.7 °F 32.0 °F 100% 29.89 in 10.0 mi West 3.5 mph - N/A   Overcast
7:55 PM 32.0 °F - 32.0 °F 100% 29.89 in 10.0 mi Calm Calm - N/A   Overcast
8:15 PM 32.0 °F - 30.2 °F 93% 29.89 in 10.0 mi Calm Calm - N/A   Partly Cloudy
8:35 PM 30.2 °F - 30.2 °F 100% 29.89 in 10.0 mi Calm Calm - N/A   Scattered Clouds
8:55 PM 30.2 °F - 30.2 °F 100% 29.89 in 10.0 mi Calm Calm - N/A   Scattered Clouds
9:15 PM 30.2 °F 25.4 °F 30.2 °F 100% 29.89 in 10.0 mi SSW 4.6 mph - N/A   Mostly Cloudy
9:35 PM 32.0 °F 27.5 °F 30.2 °F 93% 29.89 in 10.0 mi SSW 4.6 mph - N/A   Overcast
9:55 PM 30.2 °F - 30.2 °F 100% 29.89 in 10.0 mi Calm Calm - N/A   Overcast
10:15 PM 32.0 °F 28.7 °F 30.2 °F 93% 29.89 in 10.0 mi South 3.5 mph - N/A   Overcast
10:35 PM 32.0 °F 26.4 °F 30.2 °F 93% 29.88 in 10.0 mi South 5.8 mph - N/A   Overcast
10:55 PM 32.0 °F - 30.2 °F 93% 29.88 in 10.0 mi Calm Calm - N/A   Overcast
11:15 PM 32.0 °F 27.5 °F 30.2 °F 93% 29.88 in 10.0 mi South 4.6 mph - N/A   Overcast
11:35 PM 32.0 °F 27.5 °F 30.2 °F 93% 29.88 in 10.0 mi SSW 4.6 mph - N/A   Overcast
11:55 PM 32.0 °F 26.4 °F 32.0 °F 100% 29.88 in 10.0 mi SSW 5.8 mph - N/A   Overcast